Regional Weather Roundup
Issued by NWS

Home | Current Version | Previous Version | Graphics & Text | Print | Product List | Glossary Off
Versions: 1 2 3 4 5 6 7 8 9 10 11 12 13 14 15 16 17 18 19 20 21 22 23 24 25 26 27 28 29 30 31 32 33 34 35 36 37 38 39 40 41 42 43 44 45 46 47 48 49 50

000
ASUS43 KFSD 272310
RWRSD

WEATHER ROUNDUP FOR SOUTH DAKOTA
NATIONAL WEATHER SERVICE SIOUX FALLS SD
600 PM CDT WED MAY 27 2015

NOTE: "FAIR" INDICATES FEW OR NO CLOUDS BELOW 12,000 FEET WITH NO
SIGNIFICANT WEATHER AND/OR OBSTRUCTIONS TO VISIBILITY.


SDZ001>005-009-010-012>017-280000-
NORTHWEST AND NORTH CENTRAL SOUTH DAKOTA

CITY           SKY/WX    TMP DP  RH WIND       PRES   REMARKS
BUFFALO          N/A     57  54  89 NW9       29.91R
FAITH            N/A     61  56  83 SE9       29.95R
MOBRIDGE       PTSUNNY   76  54  46 S15       29.90S
$$

SDZ012>016-024>037-041>051-057-063-072>074-280000-
SOUTHWEST AND SOUTH CENTRAL SOUTH DAKOTA

CITY           SKY/WX    TMP DP  RH WIND       PRES   REMARKS
RAPID CTY ARPT CLOUDY    73  56  54 SE10      29.91F
PIERRE         PTSUNNY   75  52  44 SE10      29.92F
CUSTER         PTSUNNY   64  48  56 S6        30.01F
ELLSWORTH AFB  CLOUDY    71  60  70 N7        29.91F
PHILIP         CLOUDY    65  57  75 E10       29.88F
PINE RIDGE     CLOUDY    63  55  75 S9        29.96S
SPEARFISH      FAIR      64  55  72 SE9       29.94F
WINNER         FAIR      80  47  31 S16G24    29.95F
$$

SDZ004>011-016>023-039-040-280000-
NORTHEAST SOUTH DAKOTA

CITY           SKY/WX    TMP DP  RH WIND       PRES   REMARKS
ABERDEEN       PTSUNNY   80  49  33 S10       29.93F
WATERTOWN      PTSUNNY   80  45  28 W3        29.98F
BROOKINGS      PTSUNNY   82  45  26 S5        29.99F
SISSETON         N/A     82  47  29 SW7       29.94F
$$

SDZ017-020-022-023-036>040-048>070-280000-
SOUTHEAST SOUTH DAKOTA

CITY           SKY/WX    TMP DP  RH WIND       PRES   REMARKS
SIOUX FALLS    CLOUDY    80  52  37 S6        29.99F
HURON            N/A    N/A N/A N/A MISG      29.95F
CHAMBERLAIN    MOSUNNY   79  48  34 S13G22    29.96F
MITCHELL       PTSUNNY   80  51  36 CALM      29.98F
YANKTON        MOSUNNY   82  50  32 S9        29.97F
$$

ABBREVIATIONS USED IN REMARKS
   TC - TEMPERATURE IN CELSIUS
  WCI - WIND CHILL INDEX
   HX - HEAT INDEX
  VSB - VISIBILITY



USA.gov is the U.S. government's official web portal to all federal, state and local government web resources and services.